This demonstration page uses our WeatherBlox Daily Observations layout. Learn more.

Left ArrowRight Arrow

Hourly Observations for November 27, 2022

Temp ( °F °C ) Dew Point ( °F °C ) Humidity (%) Winds ( mph kmh ) Pressure ( in mb ) Visibility ( mi km ) Precip ( " mm )
12:56 am 00:56 Clear 34 1.1 26 -3.3 72 72 N 22 35 29.84 1011 10 16 0.00 0.00
1:56 am 01:56 Clear 32 0 26 -3.3 78 78 N 20 31 29.85 1011 10 16 0.00 0.00
2:56 am 02:56 Clear 32 0 26 -3.3 78 78 NNW 13 20 29.88 1012 10 16 0.00 0.00
3:56 am 03:56 Clear 34 1.1 26 -3.3 72 72 NNW 18 30 29.87 1012 10 16 0.00 0.00
4:56 am 04:56 Partly Cloudy 34 1.1 25 -3.9 69 69 N 20 31 29.89 1012 10 16 0.00 0.00
5:56 am 05:56 Partly Cloudy 32 0 25 -3.9 75 75 N 20 31 29.92 1013 10 16 0.00 0.00
6:56 am 06:56 Clear 30 -1.1 25 -3.9 81 81 NNW 16 26 29.94 1014 10 16 0.00 0.00
7:56 am 07:56 Sunny 30 -1.1 25 -3.9 81 81 NNW 12 19 29.98 1015 10 16 0.00 0.00
8:56 am 08:56 Sunny 31 -0.6 25 -3.9 78 78 NNW 12 19 30.00 1016 10 16 0.00 0.00
9:56 am 09:56 Sunny 32 0 25 -3.9 75 75 NNW 12 19 30.01 1016 10 16 0.00 0.00
10:56 am 10:56 Sunny 36 2.2 25 -3.9 64 64 NNW 13 20 30.01 1016 10 16 0.00 0.00
11:56 am 11:56 Sunny 40 4.4 22 -5.6 48 48 NNW 13 20 29.98 1015 10 16 0.00 0.00
12:56 pm 12:56 Sunny 39 3.9 20 -6.7 46 46 NNW 9 15 29.96 1015 10 16 0.00 0.00
1:56 pm 13:56 Sunny 38 3.3 21 -6.1 50 50 WNW 8 13 29.95 1014 10 16 0.00 0.00
2:56 pm 14:56 Sunny 39 3.9 21 -6.1 48 48 W 7 11 29.93 1014 10 16 0.00 0.00
3:56 pm 15:56 Sunny 41 5 21 -6.1 44 44 SSW 6 9 29.90 1013 10 16 0.00 0.00
4:56 pm 16:56 Sunny 38 3.3 20 -6.7 48 48 SSW 3 6 29.90 1013 10 16 0.00 0.00
5:56 pm 17:56 Clear 29 -1.7 19 -7.2 66 66 SSE 7 11 29.90 1013 10 16 0.00 0.00
6:56 pm 18:56 Clear 28 -2.2 19 -7.2 68 68 S 8 13 29.91 1013 10 16 0.00 0.00
7:56 pm 19:56 Clear 26 -3.3 18 -7.8 71 71 SSE 8 13 29.89 1012 10 16 0.00 0.00
8:56 pm 20:56 Clear 26 -3.3 19 -7.2 74 74 S 9 15 29.88 1012 10 16 0.00 0.00
9:56 pm 21:56 Clear 26 -3.3 18 -7.8 71 71 S 13 20 29.85 1011 10 16 0.00 0.00
10:56 pm 22:56 Clear 27 -2.8 18 -7.8 68 68 S 7 11 29.83 1010 10 16 0.00 0.00
11:56 pm 23:56 Clear 27 -2.8 19 -7.2 72 72 S 7 11 29.82 1010 10 16 0.00 0.00

Powered by AerisWeather